Theta_e
324 323 322 314 311 310 311 313 312 315 315 314 313 314 315 315 315 314 313 310 310 309 308 308 308 309 309 316 316 319 322 317 321 319 316 337 341 338 333 336 340 345 342 341 341 344 345
325 323 323 315 311 310 310 312 313 312 313 313 313 313 314 315 315 315 314 312 310 309 308 308 309 309 309 316 319 320 321 321 322 317 323 338 340 334 333 333 334 342 344 342 343 341 342
324 324 323 316 312 310 310 312 313 312 311 311 312 312 313 315 315 315 314 313 311 310 309 309 309 310 311 313 317 318 319 322 321 330 335 338 337 334 332 330 334 333 337 339 338 340 346
324 324 324 317 313 310 310 311 312 313 312 312 312 312 313 315 315 315 314 312 311 310 309 309 310 311 312 320 318 317 317 318 323 331 333 335 332 333 332 331 330 331 330 332 333 340 345
325 324 324 320 313 311 310 311 312 313 313 312 312 312 313 315 315 314 314 312 312 312 310 310 314 318 324 320 318 317 317 317 322 328 328 331 329 331 332 329 327 329 328 332 334 338 344
325 325 324 323 314 311 310 311 312 313 313 313 313 313 314 315 315 315 315 318 319 318 317 312 322 322 324 322 319 317 316 316 318 322 324 330 327 325 327 327 326 329 329 330 334 337 340
325 325 324 323 316 312 311 310 312 314 314 313 314 315 315 315 315 314 318 319 318 324 318 325 325 322 322 319 320 319 319 318 318 320 321 331 323 323 327 327 327 328 330 332 334 338 340
325 325 324 323 318 314 311 311 311 314 314 314 315 316 315 315 315 316 318 317 316 315 316 316 318 320 319 318 317 317 317 318 319 316 319 320 327 325 327 327 327 326 327 329 333 340 345
325 324 324 324 322 317 313 311 311 314 314 315 315 316 315 315 318 318 319 317 316 316 316 317 319 318 317 317 316 317 318 317 318 317 318 318 325 328 328 326 325 324 324 327 331 343 345
325 323 324 324 323 320 314 311 311 314 314 315 314 315 315 315 320 319 319 317 316 316 315 319 319 318 318 317 317 317 318 318 318 317 318 320 323 325 327 327 325 322 325 327 328 341 343
326 323 323 324 323 319 313 311 311 314 315 314 313 314 315 317 317 319 317 317 317 315 320 320 319 318 318 317 318 318 318 318 317 318 319 318 320 323 324 326 326 326 326 326 328 340 341
325 325 324 323 323 320 315 311 311 314 315 314 313 312 315 318 319 319 317 317 317 316 320 320 320 319 318 319 318 318 318 317 318 318 318 319 322 321 324 326 327 327 327 326 325 325 334
324 325 325 323 323 324 318 312 311 314 315 314 314 313 314 314 319 317 317 318 318 318 322 320 319 319 317 317 317 319 318 316 314 316 317 318 319 320 324 325 328 328 327 325 324 324 327
323 322 322 323 322 323 323 312 312 314 314 314 314 316 316 317 316 317 318 319 322 323 319 320 319 318 317 318 319 320 318 316 316 315 315 317 319 320 323 324 327 327 325 324 326 327 327
323 321 320 322 323 324 323 312 311 314 314 315 315 316 319 318 318 316 318 321 322 320 318 318 317 318 318 318 320 320 319 318 319 319 320 319 320 321 321 324 325 325 327 325 323 322 326
322 321 319 320 323 324 323 312 312 314 314 314 314 318 320 319 317 317 319 320 320 316 316 317 318 319 320 320 320 318 320 321 320 318 317 319 317 320 322 322 324 323 324 326 322 325 330
322 322 321 319 323 322 322 312 312 314 315 313 313 322 320 318 317 317 319 321 319 316 316 316 316 318 318 320 321 320 319 317 316 317 318 318 318 317 320 322 322 323 322 323 324 324 326
325 323 322 321 322 322 323 314 311 314 315 313 316 323 321 318 318 320 321 319 316 316 316 317 316 317 317 318 320 319 318 317 316 317 318 318 319 316 318 320 321 322 322 323 325 328 326
328 327 324 322 321 324 323 317 311 314 314 312 314 321 320 317 320 320 321 320 317 317 316 316 316 317 316 317 318 320 318 316 316 317 316 315 318 316 317 319 320 321 321 323 324 325 326
329 327 324 322 322 323 323 314 311 314 313 311 317 323 322 319 319 319 319 320 317 316 316 316 316 316 316 316 316 318 319 317 316 316 315 315 317 321 319 320 320 323 323 322 322 324 327
329 328 325 322 322 323 321 311 311 314 312 315 320 321 317 318 317 317 318 319 319 318 316 316 316 316 316 316 318 318 318 318 317 315 315 315 318 319 318 320 321 323 324 324 322 324 327
329 328 325 323 323 322 320 309 313 314 312 317 319 317 314 316 318 318 314 318 319 316 315 316 317 315 314 316 317 317 316 315 317 316 317 314 316 318 319 319 320 323 324 324 324 324 325
328 327 324 323 323 323 316 308 313 313 313 318 317 316 316 317 317 318 318 317 316 317 314 313 314 314 315 314 314 315 315 315 314 314 315 316 318 320 319 319 320 321 323 324 325 325 326
327 326 323 323 322 322 313 308 313 312 311 311 315 314 317 319 319 315 316 315 316 316 315 314 313 314 313 313 312 313 313 314 314 314 315 315 316 319 320 321 323 319 320 323 324 336 339
328 326 323 322 323 321 311 308 313 312 310 314 314 314 317 319 316 315 315 315 312 313 314 313 314 313 312 312 313 314 313 313 314 314 313 312 315 315 320 320 321 322 330 331 331 339 338
327 325 323 322 323 319 309 308 313 312 309 313 315 312 317 318 316 314 315 315 316 315 315 314 313 313 315 315 315 317 318 315 316 314 313 312 313 316 316 322 321 331 330 330 328 341 335
327 324 322 322 322 315 308 308 313 311 309 314 314 310 318 319 315 314 316 315 314 315 316 314 314 316 315 320 320 318 317 316 320 320 316 313 314 315 315 318 327 330 331 330 336 338 332
326 322 322 322 322 311 308 308 313 311 309 315 315 310 317 318 314 313 313 313 314 316 316 316 317 317 317 319 316 318 318 318 317 318 319 315 315 315 316 318 320 331 332 335 331 331 331
325 321 321 321 321 312 307 309 313 311 309 315 316 313 311 317 314 312 311 313 315 315 315 316 317 316 315 314 312 314 316 315 315 318 317 321 319 319 324 325 327 329 329 329 330 329 328
Wind_Speed
26 26 25 23 24 25 24 22 21 21 21 22 24 25 27 26 23 20 19 18 17 15 14 14 12 9 8 6 13 8 7 6 6 6 15 13 11 15 9 12 10 4 5 15 20 22 23
28 28 24 21 22 23 24 23 22 21 22 23 25 26 27 25 24 22 18 18 16 13 13 12 10 8 6 6 3 3 6 6 4 6 12 11 13 14 16 16 9 9 15 14 20 20 22
27 27 24 21 21 23 25 24 23 22 23 24 25 27 28 26 23 21 20 18 14 13 12 9 9 7 10 19 5 2 4 10 5 6 9 12 14 16 10 10 16 11 10 7 23 16 15
32 28 26 21 21 24 25 25 24 24 24 24 25 27 28 27 23 19 19 16 13 12 10 7 5 6 9 1 7 12 12 8 6 14 7 12 11 15 14 13 14 8 7 5 11 9 21
34 31 26 22 21 23 25 26 26 25 25 25 26 27 28 26 22 18 16 15 11 8 6 5 3 4 10 5 11 14 12 12 12 10 12 13 9 12 15 4 5 6 6 10 16 12 16
34 32 30 24 21 23 25 26 26 25 25 26 27 27 27 24 19 15 13 15 9 4 3 4 6 9 8 11 8 7 8 12 11 10 15 13 1 3 4 2 7 8 8 9 11 10 13
33 32 31 27 21 23 25 27 27 28 26 27 27 27 24 21 16 9 13 15 8 4 10 9 15 8 8 3 5 5 6 14 14 13 6 13 4 7 10 10 10 13 10 12 10 5 4
32 36 31 29 22 23 25 28 29 29 27 27 27 26 22 16 8 7 10 12 8 8 11 16 21 24 17 8 6 11 10 8 11 7 9 6 10 10 11 13 15 16 15 14 10 12 10
33 35 33 31 26 24 27 29 30 30 28 29 28 24 18 11 5 7 8 8 10 11 5 14 15 17 14 10 9 13 16 19 7 9 9 10 9 16 16 12 14 14 9 9 7 8 16
30 34 34 33 29 25 26 29 32 32 29 29 26 22 16 9 3 8 6 10 11 6 2 5 10 7 6 6 7 12 18 14 8 11 12 8 17 16 15 14 9 9 9 14 13 3 6
27 31 35 35 32 27 28 29 32 31 30 28 24 21 11 9 4 6 12 12 11 4 4 13 10 9 10 10 4 6 7 13 10 9 6 10 15 13 15 15 12 8 11 8 12 6 5
29 31 33 36 33 29 28 30 31 30 30 27 23 21 11 6 4 8 14 13 6 2 4 7 8 8 6 10 14 10 6 10 11 8 12 9 20 15 15 12 12 13 8 7 7 3 4
29 32 33 37 37 31 28 29 31 30 28 27 24 18 11 8 4 5 12 11 1 3 2 4 2 4 9 10 11 7 8 7 5 3 6 10 12 13 13 8 6 6 2 2 4 3 6
29 31 34 36 40 30 26 28 30 29 28 27 23 10 6 2 1 7 10 3 3 10 13 5 7 7 7 10 8 7 6 6 10 9 6 6 7 9 10 8 7 8 8 5 7 4 6
29 32 35 36 37 31 26 27 30 28 26 28 20 8 4 1 4 5 9 3 3 6 9 10 11 6 7 10 3 3 4 5 6 6 0 6 6 16 11 6 7 7 4 9 5 9 2
29 30 35 33 34 32 25 26 29 27 24 27 22 15 8 4 2 4 2 4 4 10 9 7 5 6 10 9 7 4 4 4 5 8 8 6 6 6 12 8 7 7 6 4 2 4 4
31 31 33 32 31 31 24 25 28 27 24 22 18 8 10 1 3 7 3 5 7 12 8 6 8 7 12 10 1 10 7 12 15 10 9 5 0 10 8 3 7 4 9 3 2 5 5
35 34 32 30 27 28 25 24 26 26 23 18 5 3 6 3 5 7 4 2 3 8 4 2 4 5 7 11 7 10 8 5 11 10 6 6 3 5 10 14 14 11 9 9 4 8 3
37 36 30 28 28 28 28 20 22 23 23 23 12 8 5 2 2 3 1 2 4 8 10 8 8 10 9 6 5 8 4 6 9 7 4 6 5 3 10 7 9 6 9 7 5 3 6
38 35 28 25 26 29 18 16 19 19 18 17 6 3 4 6 8 7 8 6 8 8 8 9 8 10 4 8 7 5 6 5 5 6 4 1 3 2 4 10 13 10 13 9 5 4 5
36 32 25 21 22 22 15 15 15 14 14 13 2 3 5 4 8 7 5 7 8 8 8 4 5 7 9 6 8 9 12 10 5 10 3 1 4 6 10 13 13 12 16 12 9 8 5
30 29 24 20 21 18 13 13 12 10 8 7 5 6 12 12 6 7 2 4 5 9 7 6 7 11 8 8 7 7 7 8 4 5 2 3 3 7 7 12 13 13 16 14 9 10 8
27 27 21 17 20 14 10 11 9 6 3 2 9 7 5 10 7 1 5 6 7 10 6 8 6 5 8 11 13 15 16 17 14 8 6 6 5 5 5 9 11 9 8 9 9 7 6
27 25 15 16 17 9 8 9 8 6 3 2 6 8 5 5 5 4 7 7 11 8 7 7 6 6 11 13 15 14 18 18 17 16 12 4 5 3 4 7 4 8 11 13 8 22 22
28 20 13 13 11 7 7 9 7 5 2 1 5 5 5 6 4 7 6 12 7 3 1 2 12 6 8 9 4 5 5 4 11 14 8 8 3 3 1 3 8 11 6 8 7 16 22
25 15 14 11 11 8 6 8 6 5 3 4 1 5 3 8 7 8 5 4 1 6 4 7 6 4 6 5 3 2 3 7 5 10 13 9 5 3 4 3 4 5 16 23 14 7 23
23 16 14 12 11 7 6 6 5 4 6 6 1 2 2 6 6 5 5 3 1 2 4 5 4 4 5 2 1 2 4 5 5 6 4 7 4 6 6 5 1 11 17 19 5 3 20
20 16 15 15 11 7 5 5 4 5 7 6 3 3 2 4 3 2 2 5 6 10 2 7 6 4 6 4 3 3 2 3 1 7 8 4 5 4 4 3 5 23 10 6 4 10 18
21 17 11 9 11 6 4 4 6 7 9 7 7 8 3 1 3 1 3 1 3 4 10 9 7 8 7 3 2 2 3 4 6 2 8 4 5 3 3 3 9 24 19 15 13 23 21
Wind_Direction
3 0 357 357 357 358 359 357 353 354 354 352 351 348 345 337 331 329 332 326 320 316 311 306 300 299 297 278 260 277 282 297 302 229 198 186 233 241 245 249 217 162 200 249 249 253 276
5 2 359 357 356 357 358 355 352 350 349 350 350 349 346 339 330 325 329 326 319 312 312 305 299 293 277 255 196 238 277 281 287 215 191 215 245 230 266 277 276 212 201 250 279 271 262
6 3 359 358 357 358 360 357 353 349 348 348 347 347 346 342 334 326 325 324 317 313 310 299 299 285 251 240 182 251 221 273 211 255 211 234 260 261 243 282 281 285 226 175 256 260 137
3 358 360 357 357 358 358 357 353 350 348 346 345 344 344 344 337 330 325 323 319 313 301 286 280 276 256 280 263 234 262 234 237 222 234 257 256 272 279 284 311 287 297 258 263 226 153
5 4 0 356 356 357 357 357 353 349 347 345 343 342 342 342 337 332 332 324 320 328 308 267 233 268 269 268 237 228 220 231 216 229 238 246 286 250 259 254 320 283 233 236 263 230 142
3 1 358 356 354 354 354 355 352 349 345 343 342 340 340 340 339 339 348 339 330 332 320 286 201 282 256 249 221 231 197 218 229 218 236 235 265 276 258 181 209 234 214 246 237 245 198
2 0 358 354 352 350 350 352 352 347 345 342 341 340 339 341 343 353 23 21 2 41 321 237 286 251 325 258 274 214 199 215 236 224 220 212 174 222 231 227 248 259 268 235 236 263 211
1 2 358 355 348 346 346 348 349 347 344 341 339 339 338 343 9 18 4 22 18 327 301 281 258 262 274 288 289 229 212 236 228 235 206 252 220 236 222 228 232 253 264 270 299 86 75
358 359 359 354 345 340 344 344 346 345 343 340 338 338 337 343 18 9 357 358 352 337 276 291 246 230 236 217 245 236 197 214 208 241 215 216 241 224 248 234 232 241 247 270 262 104 112
353 357 359 356 348 341 341 343 345 344 342 340 338 337 336 344 329 345 11 332 335 330 307 248 181 235 174 224 250 260 188 206 235 214 236 224 234 246 229 252 231 243 239 250 271 60 163
348 353 356 356 351 344 341 343 343 343 340 341 338 335 336 332 335 32 345 341 323 307 349 141 163 155 220 204 98 212 164 217 253 257 209 234 248 240 245 226 250 243 251 261 254 161 122
344 344 348 352 348 341 339 340 342 342 339 338 338 331 322 284 258 3 348 325 319 297 249 140 154 188 212 224 267 137 199 244 281 291 286 252 248 239 240 251 218 247 273 316 318 211 189
342 342 342 346 346 340 335 337 341 341 339 336 337 325 301 256 249 4 343 325 284 247 6 117 225 172 197 221 224 192 180 197 215 237 286 289 253 261 249 247 224 256 161 319 327 329 219
338 340 341 340 344 336 334 336 340 340 340 334 339 332 309 47 105 18 324 310 267 309 7 32 3 348 308 298 203 185 228 207 214 235 272 230 279 237 258 199 206 219 176 169 211 219 232
332 336 339 339 340 339 336 337 338 340 342 333 339 309 281 343 28 31 298 274 337 18 21 355 331 311 283 276 36 324 256 239 26 9 201 17 304 343 270 257 189 269 253 225 269 267 301
326 326 333 335 340 340 336 338 340 340 345 334 335 326 273 80 306 253 264 270 28 45 4 345 317 318 323 1 11 205 259 28 98 54 41 355 328 310 307 295 235 179 240 276 283 247 271
323 322 325 331 333 342 336 339 340 339 344 339 337 331 133 120 199 234 237 267 77 88 30 350 359 330 338 355 47 308 18 27 13 11 26 351 316 293 334 289 192 233 247 272 293 175 189
320 319 320 325 328 331 334 335 340 339 342 343 346 274 194 177 229 224 246 35 316 50 7 12 304 317 357 355 338 345 63 50 21 339 2 51 269 289 282 303 306 215 213 203 165 282 235
320 317 317 316 320 322 324 328 338 339 341 347 336 280 220 137 271 326 222 253 63 45 17 13 346 9 5 347 349 345 88 73 38 49 44 338 308 292 323 328 336 220 235 218 218 256 247
316 312 311 311 320 326 324 330 337 337 335 339 333 290 205 221 8 12 10 335 116 79 67 44 337 327 331 317 306 300 324 148 68 84 68 229 275 299 267 311 322 321 320 242 225 228 260
314 310 306 303 313 323 318 329 337 335 330 341 281 325 19 346 16 338 13 340 346 103 38 61 330 9 22 335 353 9 6 350 178 155 153 238 267 328 317 326 318 313 315 313 237 246 234
311 314 305 299 311 314 312 330 332 331 323 339 335 353 342 302 357 293 157 45 322 81 29 16 2 14 349 33 26 350 0 1 332 346 224 238 280 312 305 298 294 299 301 304 260 254 279
313 313 296 290 298 297 301 320 316 321 321 358 348 307 273 292 262 250 35 45 63 25 106 74 3 0 27 12 342 322 315 307 302 315 343 2 11 344 276 290 312 307 281 300 325 258 269
314 313 289 289 303 269 297 321 306 309 284 256 39 352 302 287 276 61 93 111 80 50 355 76 53 37 7 337 314 297 277 273 287 295 307 309 326 313 295 343 283 256 287 287 289 31 23
311 305 271 288 272 277 296 313 293 287 234 160 58 352 304 300 68 118 145 105 107 157 330 311 68 25 331 326 34 358 318 253 248 281 251 264 276 301 218 280 280 290 16 357 22 32 5
301 283 265 262 264 263 287 310 277 260 209 173 57 327 307 300 25 108 95 57 287 181 194 135 114 47 338 46 59 42 342 295 199 227 215 217 216 178 312 279 248 10 338 321 319 49 347
301 270 252 256 253 250 283 298 254 238 190 178 78 35 274 284 77 30 21 19 89 289 195 104 108 31 26 91 38 230 212 257 296 318 183 197 212 208 252 249 344 338 350 318 47 12 328
294 255 251 243 231 242 275 284 231 209 179 162 129 27 61 327 49 45 33 30 3 359 23 90 49 42 33 48 41 329 283 162 214 306 304 183 166 219 232 255 271 351 33 56 223 72 30
289 240 244 236 232 231 271 264 202 191 171 142 112 358 243 55 48 178 210 93 51 28 1 81 88 68 25 93 116 287 335 319 342 297 1 317 3 310 16 115 64 55 66 55 37 53 42